Location: Newark
(21.1200°N, 73.4000°E)
Time: 18:03:55
(UTC+00:00)

Tiros 1 - All Passes

Search period start: 27 January 2020 00:00
Search period end: 06 February 2020 00:00
Orbit: 630 x 664 km, 48.4° (Epoch: 26 January)

Date Brightness Start Highest point End Pass type
(mag) Time Alt. Az. Time Alt. Az. Time Alt. Az.
27 Jan - 05:09:31 10° SW 05:14:08 76° SE 05:18:47 10° NE daylight
27 Jan - 06:54:17 10° WNW 06:56:39 14° NW 06:59:02 10° N daylight
27 Jan - 13:49:23 10° NNW 13:53:52 39° NE 13:58:21 10° ESE visible
27 Jan - 15:32:11 10° WNW 15:35:52 22° SW 15:39:33 10° S visible
28 Jan - 03:54:43 10° S 03:58:14 22° SE 04:01:46 10° ENE daylight
28 Jan - 05:35:57 10° WSW 05:40:12 36° NW 05:44:31 10° NNE daylight
28 Jan - 12:34:45 10° N 12:37:26 15° NE 12:40:07 10° ENE daylight
28 Jan - 14:15:10 10° NW 14:19:56 74° SW 14:24:44 10° SE visible
29 Jan - 04:19:31 10° SW 04:24:06 67° SE 04:28:42 10° NE daylight
29 Jan - 06:03:55 10° WNW 06:06:34 15° NW 06:09:14 10° N daylight
29 Jan - 12:59:25 10° NNW 13:03:48 35° NE 13:08:10 10° ESE daylight
29 Jan - 14:41:57 10° WNW 14:45:50 25° SW 14:49:43 10° S visible
30 Jan - 03:04:56 10° S 03:08:13 19° SE 03:11:31 10° E daylight
30 Jan - 04:45:48 10° WSW 04:50:09 40° NW 04:54:31 10° NNE daylight
30 Jan - 11:44:59 10° N 11:47:19 13° NE 11:49:39 10° ENE daylight
30 Jan - 13:25:06 10° NW 13:29:53 83° SW 13:34:41 10° SE visible
31 Jan - 03:29:32 10° SSW 03:34:04 59° SE 03:38:37 10° NE daylight
31 Jan - 05:13:33 10° WNW 05:16:28 16° NW 05:19:23 10° N daylight
31 Jan - 12:09:27 10° NNW 12:13:43 32° NE 12:17:59 10° ESE daylight
31 Jan - 13:51:45 10° WNW 13:55:48 27° SW 13:59:51 10° S visible
01 Feb - 02:15:12 10° SSE 02:18:12 17° SE 02:21:12 10° E daylight
01 Feb - 03:55:41 10° WSW 04:00:05 45° NW 04:04:32 10° NNE daylight
01 Feb - 10:55:16 10° N 10:57:12 12° NE 10:59:07 10° ENE daylight
01 Feb - 12:35:03 10° NW 12:39:50 88° NE 12:44:38 10° SE daylight
02 Feb - 02:39:34 10° SSW 02:44:02 52° SE 02:48:32 10° NE daylight
02 Feb - 04:23:14 10° W 04:26:22 18° NW 04:29:31 10° N daylight
02 Feb - 11:19:30 10° NNW 11:23:38 29° NE 11:27:46 10° ESE daylight
02 Feb - 13:01:34 10° WNW 13:05:44 31° SW 13:09:57 10° S daylight
03 Feb - 01:25:32 10° SSE 01:28:12 15° SE 01:30:50 10° E daylight
03 Feb - 03:05:34 10° WSW 03:10:02 50° NW 03:14:32 10° NNE daylight
03 Feb - 10:05:43 10° NNE 10:07:05 11° NE 10:08:26 10° NE daylight
03 Feb - 11:45:01 10° NW 11:49:46 79° NE 11:54:33 10° SE daylight
04 Feb - 01:49:36 10° SSW 01:54:01 46° SE 01:58:25 10° ENE daylight
04 Feb - 03:32:58 10° W 03:36:17 19° NW 03:39:38 10° N daylight
04 Feb - 10:29:34 10° NNW 10:33:32 26° NE 10:37:32 10° E daylight
04 Feb - 12:11:24 10° WNW 12:15:42 34° SW 12:20:02 10° SSE daylight
05 Feb - 00:35:56 10° SSE 00:38:10 13° SE 00:40:24 10° E visible
05 Feb - 02:15:28 10° SW 02:19:59 56° NW 02:24:32 10° NE daylight
05 Feb - 10:54:58 10° NW 10:59:42 71° NE 11:04:28 10° SE daylight
05 Feb - 12:40:01 10° WSW 12:41:31 11° SW 12:43:01 10° SW daylight
